DW5575 Weather Reports


Display with metric or nautical units.
time (UTC)temp
F
wind
direction
speed
MPH
gust
MPH
rain 1hr
in
rain 24hr
in
rain mn
in
humidity
%
barometer
mb
20260510010006 78 208 0.0 1.0 0.00 0.00 0.00 59 1008.4
20260510004505 78 315 1.0 8.0 0.00 0.00 0.00 61 1008.2
20260510003005 79 230 1.0 3.0 0.00 0.00 0.00 62 1008.3
20260510001504 79 184 1.0 8.0 0.00 0.00 0.00 54 1008.1
20260510000002 82 213 3.0 8.0 0.00 0.00 0.00 61 1008.4
20260509234601 85 263 0.0 3.0 0.00 0.00 0.00 67 1008.0
20260509233001 86 60 0.0 3.0 0.00 0.00 0.00 65 1007.6
20260509231627 87 53 0.0 4.0 0.00 0.00 0.00 62 1007.6
20260509230109 88 355 0.0 1.0 0.00 0.00 0.00 63 1007.6
20260509224600 88 318 0.0 2.0 0.00 0.00 0.00 62 1007.4
20260509223111 88 71 0.0 1.0 0.00 0.00 0.00 61 1007.4
20260509221619 88 105 0.0 1.0 0.00 0.00 0.00 63 1007.2
20260509220058 89 85 0.0 2.0 0.00 0.00 0.00 61 1007.3
20260509214603 89 42 0.0 3.0 0.00 0.00 0.00 61 1007.2
20260509213056 89 277 0.0 2.0 0.00 0.00 0.00 60 1007.2
20260509211556 89 196 0.0 3.0 0.00 0.00 0.00 61 1007.3
20260509210056 89 177 0.0 3.0 0.00 0.00 0.00 59 1007.5
20260509204550 89 319 0.0 3.0 0.00 0.00 0.00 59 1007.9
20260509203050 90 273 0.0 5.0 0.00 0.00 0.00 59 1008.1
20260509201548 91 288 1.0 3.0 0.00 0.00 0.00 58 1008.2
20260509200051 91 121 1.0 4.0 0.00 0.00 0.00 58 1008.3
20260509194551 92 175 0.0 3.0 0.00 0.00 0.00 58 1008.5
20260509193042 89 264 1.0 3.0 0.00 0.00 0.00 58 1008.6
20260509191539 89 345 0.0 3.0 0.00 0.00 0.00 61 1008.7
20260509190036 88 349 1.0 3.0 0.00 0.00 0.00 61 1008.9
20260509184536 88 309 0.0 3.0 0.00 0.00 0.00 64 1008.9
20260509183041 87 360 0.0 4.0 0.00 0.00 0.00 67 1009.2
20260509181528 86 215 0.0 5.0 0.00 0.00 0.00 69 1009.3
20260509180026 86 195 0.0 4.0 0.00 0.00 0.00 69 1009.5
20260509174540 86 232 0.0 3.0 0.00 0.00 0.00 70 1009.9
20260509173023 85 49 1.0 4.0 0.00 0.00 0.00 72 1010.1
20260509171522 84 257 1.0 5.0 0.00 0.00 0.00 74 1010.0
20260509170015 82 83 0.0 2.0 0.00 0.00 0.00 78 1010.2
20260509164511 81 265 0.0 2.0 0.00 0.00 0.00 81 1010.3
20260509163009 79 336 0.0 1.0 0.00 0.00 0.00 81 1010.3
20260509161506 79 35 0.0 0.0 0.00 0.00 0.00 81 1010.5
20260509160007 78 35 0.0 1.0 0.00 0.00 0.00 83 1010.5
20260509154503 78 88 0.0 1.0 0.00 0.00 0.00 84 1010.4
20260509153002 77 109 0.0 1.0 0.00 0.00 0.00 85 1010.4
20260509151601 77 109 0.0 1.0 0.00 0.00 0.00 86 1010.5
20260509150104 77 109 0.0 1.0 0.00 0.00 0.00 87 1010.4
20260509144558 76 109 0.0 0.0 0.00 0.00 0.00 89 1009.9
20260509143100 76 109 0.0 1.0 0.00 0.00 0.00 89 1009.9
20260509141559 75 109 0.0 1.0 0.00 0.00 0.00 89 1009.8
20260509134552 75 119 0.0 1.0 0.00 0.00 0.00 90 1009.8
20260509133052 75 119 0.0 1.0 0.00 0.00 0.00 90 1010.1
20260509131553 75 184 0.0 1.0 0.00 0.00 0.00 90 1010.5
20260509130048 75 317 0.0 1.0 0.00 0.00 0.00 90 1010.7
20260509124546 74 317 0.0 1.0 0.00 0.00 0.00 90 1010.3
20260509123101 74 317 0.0 0.0 0.00 0.00 0.00 90 1010.3
20260509121546 74 317 0.0 1.0 0.00 0.00 0.00 90 1010.2
20260509120045 74 317 0.0 1.0 0.00 0.00 0.00 89 1010.1
20260509114545 74 317 0.0 0.0 0.00 0.00 0.00 89 1009.8
20260509113043 74 311 0.0 2.0 0.00 0.00 0.00 89 1010.3
20260509111542 74 281 0.0 1.0 0.00 0.00 0.00 89 1010.3
20260509110041 74 281 0.0 1.0 0.00 0.00 0.00 89 1010.2
20260509104541 74 281 0.0 1.0 0.00 0.00 0.00 89 1009.6
20260509103047 74 281 0.0 0.0 0.00 0.00 0.00 89 1009.4
20260509101539 74 281 0.0 1.0 0.00 0.00 0.00 89 1009.5
20260509100042 74 29 0.0 1.0 0.00 0.00 0.00 89 1009.2
20260509094538 74 29 0.0 0.0 0.00 0.00 0.00 89 1009.2
20260509093042 74 29 0.0 1.0 0.00 0.00 0.00 89 1009.2
20260509091537 74 29 0.0 0.0 0.00 0.00 0.00 89 1009.6
20260509090045 74 29 0.0 0.0 0.00 0.00 0.00 89 1009.5
20260509084536 74 29 0.0 1.0 0.00 0.00 0.00 89 1009.7
20260509083034 74 29 0.0 0.0 0.00 0.00 0.00 89 1009.5
20260509081528 74 29 0.0 0.0 0.00 0.00 0.00 89 1009.4
20260509080024 74 29 0.0 0.0 0.00 0.00 0.00 89 1009.4
20260509074519 74 29 0.0 1.0 0.00 0.00 0.00 89 1009.4
20260509073017 74 116 0.0 1.0 0.00 0.00 0.00 88 1009.4
20260509071514 74 237 0.0 1.0 0.00 0.00 0.00 88 1009.4
20260509070014 74 237 0.0 1.0 0.00 0.00 0.00 88 1009.7
20260509064511 74 237 0.0 1.0 0.00 0.00 0.00 88 1009.7
20260509063014 74 237 0.0 0.0 0.00 0.00 0.00 87 1009.9
20260509061507 74 237 0.0 0.0 0.00 0.00 0.00 87 1010.1
20260509060005 74 237 0.0 0.0 0.00 0.00 0.00 87 1010.0
20260509054502 74 237 0.0 0.0 0.00 0.00 0.00 87 1010.1
20260509053101 74 237 0.0 1.0 0.00 0.00 0.00 87 1010.1
20260509051553 74 237 0.0 1.0 0.00 0.00 0.00 87 1010.2
20260509050053 74 133 0.0 1.0 0.00 0.00 0.00 87 1010.2
20260509044547 74 133 0.0 0.0 0.00 0.00 0.00 86 1010.4
20260509043057 74 133 0.0 0.0 0.00 0.00 0.00 86 1010.3
20260509041546 74 133 0.0 1.0 0.00 0.00 0.00 86 1010.3
20260509040048 74 133 0.0 0.0 0.00 0.00 0.00 86 1010.0
20260509034550 74 133 0.0 2.0 0.00 0.00 0.00 86 1009.7
20260509033045 74 137 0.0 1.0 0.00 0.00 0.00 86 1009.9
20260509031601 74 215 0.0 1.0 0.00 0.00 0.00 86 1009.8
20260509030044 74 210 0.0 1.0 0.00 0.00 0.00 85 1009.7
20260509024543 74 105 0.0 1.0 0.00 0.00 0.00 85 1009.7
20260509023042 74 31 0.0 0.0 0.00 0.00 0.00 85 1009.3
20260509021542 74 21 0.0 1.0 0.00 0.00 0.00 85 1009.1
20260509020041 74 63 0.0 1.0 0.00 0.00 0.00 85 1009.0
20260509014541 74 63 0.0 1.0 0.00 0.00 0.00 85 1009.0
20260509013044 74 115 0.0 1.0 0.00 0.00 0.00 84 1009.1
20260509011545 74 115 0.0 1.0 0.00 0.00 0.00 84 1008.8
20260509010043 74 67 0.0 2.0 0.00 0.00 0.00 84 1008.8